PDT,Max TemperatureF,Mean TemperatureF,Min TemperatureF,Max Dew PointF,MeanDew PointF,Min DewpointF,Max Humidity, Mean Humidity, Min Humidity, Max Sea Level PressureIn, Mean Sea Level PressureIn, Min Sea Level PressureIn, Max VisibilityMiles, Mean VisibilityMiles, Min VisibilityMiles, Max Wind SpeedMPH, Mean Wind SpeedMPH, Max Gust SpeedMPH,PrecipitationIn, CloudCover, Events, WindDirDegrees
2011-10-1,93,74,55,44,39,33,51,34,16,30.01,29.96,29.92,10,10,10,22,6,24,0.00,0,,259
2011-10-2,90,74,57,47,44,40,51,36,21,30.03,29.98,29.94,10,10,10,25,9,31,0.00,0,,254
2011-10-3,84,71,58,49,43,33,60,41,22,29.96,29.90,29.85,10,10,10,23,13,29,0.00,0,,251
2011-10-4,69,61,53,50,46,39,77,60,42,29.92,29.89,29.87,10,10,10,25,18,32,T,1,Rain,247
2011-10-5,66,57,47,52,46,41,83,72,60,29.89,29.81,29.75,10,8,1,38,17,47,0.19,6,Rain,253
2011-10-6,62,54,46,40,37,33,76,55,34,30.01,29.90,29.83,10,10,10,28,17,36,0.00,1,,279
2011-10-7,70,54,38,39,35,24,86,53,20,30.13,30.08,30.01,10,10,10,21,7,24,0.00,0,,287
2011-10-8,77,57,36,38,34,30,82,51,19,30.16,30.08,30.00,10,10,10,14,3,18,0.00,0,,340
2011-10-9,78,59,40,38,34,28,79,48,16,30.08,30.00,29.91,10,10,10,12,4,,0.00,0,,273
2011-10-10,81,62,42,44,37,25,76,45,13,30.00,29.94,29.89,10,10,10,28,11,33,0.00,0,,273
2011-10-11,83,72,60,53,49,44,72,50,28,30.00,29.95,29.91,10,10,10,29,16,35,0.00,0,,290
2011-10-12,90,69,48,52,42,30,89,51,12,30.08,30.01,29.95,10,10,10,14,4,18,0.00,0,,15
2011-10-13,94,70,45,38,32,20,65,36,7,30.03,29.94,29.84,10,10,10,12,3,14,0.00,0,,276
2011-10-14,95,71,47,40,34,31,53,33,12,29.94,29.88,29.83,10,10,10,18,6,22,0.00,0,,267
2011-10-15,90,68,46,47,39,34,60,37,14,29.95,29.91,29.87,10,10,10,24,8,30,0.00,0,,258
2011-10-16,91,71,50,46,39,34,59,37,15,30.03,29.99,29.95,10,10,10,21,9,26,0.00,0,,246
2011-10-17,90,70,50,47,39,35,63,39,15,30.12,30.06,30.01,10,10,10,18,6,24,0.00,0,,333
2011-10-18,89,68,46,37,29,19,56,33,9,30.15,30.05,29.96,10,10,10,16,4,21,0.00,0,,329
2011-10-19,88,67,45,51,37,23,69,40,11,29.98,29.92,29.86,10,10,10,25,7,30,0.00,0,,278
2011-10-20,86,65,44,48,41,30,86,50,14,30.02,29.98,29.93,10,10,7,14,4,17,0.00,0,,270
2011-10-21,86,66,46,48,37,24,65,38,11,30.12,30.07,30.02,10,10,10,15,4,18,0.00,0,,336
2011-10-22,89,66,43,43,30,21,71,40,9,30.17,30.09,30.02,10,10,9,18,5,21,0.00,0,,6
2011-10-23,88,65,41,35,27,21,49,29,9,30.09,30.02,29.95,10,10,10,13,4,15,0.00,0,,266
2011-10-24,84,67,49,47,36,31,50,33,16,30.01,29.98,29.95,10,10,10,23,12,26,0.00,0,,253
2011-10-25,66,60,54,49,47,40,83,63,43,30.01,29.97,29.92,10,10,10,32,20,40,0.00,0,,249
2011-10-26,72,55,37,46,21,-6,72,39,6,30.12,30.05,29.97,10,10,10,20,9,25,0.00,0,,25
2011-10-27,70,50,29,14,6,1,39,23,7,30.19,30.13,30.05,10,10,10,16,6,23,0.00,0,,329
2011-10-28,74,51,27,9,4,-2,32,19,5,30.23,30.16,30.10,10,10,10,12,4,17,0.00,0,,330
2011-10-29,79,54,29,13,5,-3,31,18,5,30.22,30.14,30.07,10,10,10,10,2,13,0.00,0,,314
2011-10-30,82,57,32,17,11,6,35,21,6,30.20,30.13,30.06,10,10,10,9,2,13,0.00,0,,274
2011-10-31,84,59,34,26,17,11,40,24,7,30.11,30.01,29.94,10,10,2,16,5,18,0.00,0,,276